Location: Oulou
(10.7667°N, 12.5167°W)
Time: 22:35:57
(UTC+00:00)

ATLAS 2AS CENTAUR R/B - Pass Details

Date: 20 September 2019
Orbit: 919 x 1292 km, 63.6° (Epoch: 21 September)

Event Time Altitude Azimuth Distance (km) Brightness Sun altitude
Rises 21:01:08 0° 337° (NNW) 3,986 6.1 -33.5°
Reaches altitude 10° 21:03:56 10° 338° (NNW) 2,970 5.3 -34.2°
Enters shadow 21:08:21 41° 342° (NNW) 1,485 3.5 -35.3°
